FLOCK 2K-33 (42879 NORAD) Tracking and Keplerian Element Data

This shows tracking and keplerian element data for the satellite.

Feedback or suggestion? Click here.




ElementValue
Catalog42879
NameFLOCK 2K-33
Epoch Orbit15586
Epoch Day114.91452252
Epoch Year2020
RAAN348.0248
Inclination96.899
Eccentricity0.0010534
Argument of Perigee143.503
Mean Anonmoly216.694
Mean Motion15.45124422
Decay Rate6.689E-05
L11 42879U 17042BG 20114.91452252 .00006689 00000-0 14275-3 0 9993
L22 42879 96.8990 348.0248 0010534 143.5030 216.6940 15.45124422155864



Live tracking and technical data element details for FLOCK 2K-33 (NORAD 42879). FLOCK 2K-33 can be tracked NOW for your location showing map with azimuth and elevation plus other details from your city location.







IsCatalogInMostPopularTable: catalog: 42879, numindb: 584
Update: records affected: 1



GetName: 42879 FLOCK 2K-33

Hit Count: updated at: Thu, 22 May 2025 03:34:25 GMT